Home   Weather   Managua   Past weeks

Flag for Nicaragua Past Weather in Managua, Nicaragua — Yesterday and Last 2 Weeks

Now
81 °F

Rain. Partly sunny.


Feels Like: 86 °F
Forecast: N/A
Wind: 14 mph from Southeast

Location: Managua A. C. Sandino

Current Time: Jul 20, 2017 at 2:46:18 pm

Latest Report: Jul 20, 2017 at 2:00 pm


Visibility: 4 mi

Pressure: 29.83 "Hg

Humidity: 84%

Dew Point: 75 °F

Location of ManaguaLocation

Past Weather in Managua — Graph

°F

Managua Temperature Yesterday

Maximum temperature yesterday: 90 °F (at 2:00 pm)
Minimum temperature yesterday: 72 °F (at 5:00 am)
Average temperature yesterday: 79 °F

High & Low Weather Summary for the Past Weeks

 TemperatureHumidityPressure
High91 °F (Jul 14, 12:00 pm)100% (Jul 5, 9:00 pm)29.98 "Hg (Jul 5, 9:00 pm)
Low72 °F (Jul 13, 6:00 am)49% (Jul 14, 1:00 pm)29.53 "Hg (Jul 18, 3:00 am)
Average81 °F80%29.87 "Hg
* Reported Jul 5 1:00 pm — Jul 20 1:00 pm, Managua. Weather by CustomWeather, © 2017

Note: Actual official high and low records may vary slightly from our data, if they occured in-between our weather recording intervals... More about our weather records

Advertising

Managua Weather History for the Previous 24 Hours

Scroll right to see more
 ConditionsComfort  
Time TempWeatherWind HumidityBarometerVisibility
1:00 pm
Thu, Jul 20
82 °FScattered clouds.12 mph84%29.86 "HgN/A
12:00 pm82 °FScattered clouds.14 mph84%29.89 "HgN/A
11:00 am86 °FScattered clouds.14 mph75%29.89 "HgN/A
10:00 am86 °FScattered clouds.18 mph70%29.92 "HgN/A
9:00 am82 °FScattered clouds.12 mph79%29.92 "HgN/A
8:00 am81 °FPartly sunny.7 mph84%29.92 "HgN/A
7:00 am79 °FPartly sunny.7 mph84%29.89 "HgN/A
6:00 am77 °FPartly sunny.7 mph89%29.86 "HgN/A
5:00 am77 °FPassing clouds.N/A89%29.83 "HgN/A
4:00 am73 °FPassing clouds.5 mph100%29.83 "HgN/A
3:00 am75 °FPassing clouds.No wind94%29.86 "HgN/A
1:00 am75 °FPassing clouds.9 mph89%29.86 "HgN/A
12:00 am75 °FPassing clouds.7 mph89%29.89 "HgN/A
11:00 pm
Wed, Jul 19
75 °FPassing clouds.9 mph89%29.92 "HgN/A
10:00 pm73 °FPassing clouds.7 mph94%29.92 "HgN/A
9:00 pm73 °FPassing clouds.7 mph94%29.89 "HgN/A
8:00 pm75 °FPassing clouds.5 mph89%29.92 "Hg6 mi
7:00 pm73 °FPassing clouds.7 mph100%29.92 "Hg6 mi
6:00 pm77 °FRain. Partly sunny.14 mph94%29.92 "Hg6 mi
5:00 pm81 °FThunderstorms. Scattered clouds.16 mph84%29.86 "Hg6 mi
4:00 pm84 °FScattered clouds.7 mph74%29.83 "HgN/A
3:00 pm90 °FScattered clouds.9 mph59%29.83 "HgN/A
2:00 pm90 °FScattered clouds.14 mph59%29.83 "HgN/A
Weather by CustomWeather, © 2017

See weather overviewHow to use our weather pages